#timestamp,LO_Frequency,Hit,StdDev 
1540735215.1,286047003.1,N
1540735216.0,286047003.1,N
1540735235.8,286047004.2,N
1540735255.6,286047005.2,N
1540735275.5,286047008.6,N
1540735295.3,286047011.9,N
1540735315.2,286047009.8,N
1540735335.9,286047007.8,N
1540735355.7,286047008.1,N
1540735375.6,286047010.5,N
1540735395.4,286047013.2,N
1540735415.2,286047011.4,N
1540735435.1,286047009.9,N
1540735436.0,286047009.9,N
1540735455.8,286047013.8,N
1540735475.7,286047010.6,N
1540735495.5,286047007.9,N
1540735515.3,286047009.2,N
1540735535.2,286047012.0,N
1540735555.0,286047010.3,N
1540735555.9,286047010.3,N
1540735575.8,286047009.4,N
1540735595.6,286047012.3,N
1540735615.4,286047009.7,N
1540735635.3,286047009.6,N
1540735655.1,286047009.9,N
1540735675.8,286047010.1,N
1540735695.7,286047010.8,N
1540735715.5,286047007.7,N
1540735735.4,286047009.6,Y
1540735755.2,286046997.4,P
1540735775.0,286046997.6,N
1540735775.9,286046997.6,N
1540735795.8,286046998.1,N
1540735815.6,286047002.9,N
1540735835.5,286047002.7,N
1540735855.3,286046998.3,N
1540735875.1,286046999.2,N
1540735895.9,286046997.0,N
1540735915.7,286046997.4,N
1540735935.5,286046998.0,N
1540735955.4,286046999.0,N
1540735975.2,286046999.5,N
1540735995.1,286046998.3,N
1540735996.0,286046998.3,N
1540736015.8,286046999.5,N
1540736035.6,286046995.1,N
1540736055.5,286046995.0,N
1540736075.3,286046994.9,N
1540736095.1,286046993.3,N
1540736115.9,286046994.6,N
1540736135.7,286046994.1,N
1540736155.5,286046992.0,N
1540736175.4,286046993.1,N
1540736195.2,286046991.3,N
1540736215.1,286046991.1,N
1540736216.0,286046991.1,N
1540736235.8,286046990.1,N
1540736255.6,286046990.3,N
1540736275.5,286046988.6,N
1540736295.3,286046989.7,N
1540736315.1,286046989.3,N
1540736335.9,286046993.2,N
1540736355.7,286046992.2,N
1540736375.6,286046988.1,Y
1540736395.4,286046989.6,P
1540736415.2,286046989.9,P
1540736435.1,286046990.0,P
1540736436.0,286046990.0,Y
1540736455.8,286047000.8,P
1540736475.7,286047001.2,N
1540736495.5,286047002.7,N
1540736515.3,286047005.3,N
1540736535.2,286047003.9,N
1540736555.9,286047007.1,N
1540736575.7,286047011.5,N
1540736595.6,286047011.6,N
1540736615.4,286047009.6,N
1540736635.2,286047007.5,N
1540736655.1,286047005.5,N
1540736656.0,286047005.5,N
1540736675.8,286047003.7,N
1540736695.7,286047004.8,N
1540736715.5,286047006.9,N
1540736735.3,286047006.0,N
1540736755.2,286047007.4,N
1540736775.9,286047013.9,Y
1540736795.7,286047008.5,P
1540736815.6,286047005.8,P
1540736835.4,286046999.8,N
1540736855.3,286046998.1,N
1540736875.1,286046995.6,N
1540736876.0,286046995.6,N
1540736895.8,286046993.3,N
1540736915.7,286046993.7,N
1540736935.5,286046994.0,N
1540736955.3,286046995.3,N
1540736975.2,286047000.9,N
1540736995.0,286047000.1,N
1540736995.9,286047000.1,N
1540737015.8,286047006.0,N
1540737035.6,286047005.0,N
1540737055.4,286047002.7,N
1540737075.3,286046995.4,N
1540737095.1,286046994.5,N
1540737096.0,286046994.5,N
1540737115.8,286046993.3,N
1540737135.7,286046993.6,N
1540737155.5,286046989.7,N
1540737175.3,286046990.0,N
1540737195.2,286046988.0,N
1540737215.0,286046985.7,N
1540737215.9,286046985.7,N
1540737235.8,286046985.3,N
1540737255.6,286046985.4,N
1540737275.4,286046991.1,N
1540737295.3,286046993.2,N
1540737315.1,286046992.2,N
1540737335.8,286046992.5,N
1540737355.7,286046991.7,N
1540737375.5,286046991.1,N
1540737395.4,286046991.0,N
1540737415.2,286046993.0,N
1540737435.0,286046990.2,N
1540737435.9,286046990.2,N
1540737455.8,286046990.4,N
1540737475.6,286046990.7,N
1540737495.4,286046992.4,N
1540737515.3,286046990.5,N
1540737535.1,286046994.7,N
1540737555.9,286046995.7,N
1540737575.7,286046997.9,N
1540737595.5,286046998.2,N
1540737615.4,286047002.7,N
1540737635.2,286047001.5,N
1540737655.0,286047001.5,N
1540737655.9,286047001.5,N
1540737675.8,286046998.6,N
1540737695.6,286047000.9,N
1540737715.5,286047001.6,N
1540737735.3,286047003.8,N
1540737755.1,286047003.3,N
1540737775.9,286047003.5,N
1540737795.7,286047005.2,N
1540737815.5,286047005.8,N
1540737835.4,286047005.2,N
1540737855.2,286047005.4,N
1540737875.0,286047003.5,N
1540737875.9,286047003.5,N
1540737895.8,286047002.8,N
1540737915.6,286047002.3,N
1540737935.5,286047007.0,N
1540737955.3,286047010.0,N
1540737975.1,286047009.1,N
1540737995.9,286047004.6,N
1540738015.7,286047006.1,N
1540738035.5,286047013.8,N
1540738055.4,286047011.8,N
1540738075.2,286047012.4,N
1540738095.1,286047009.7,N
1540738096.0,286047009.7,N
1540738115.8,286047010.6,N
1540738135.6,286047010.0,N
1540738155.5,286047008.4,N
1540738175.3,286047009.5,N
1540738195.1,286047012.7,Y
1540738215.9,286047006.8,P
1540738235.7,286047005.5,P
1540738255.6,286047005.5,P
1540738275.4,286047000.4,N
1540738295.2,286046996.7,N
1540738315.1,286046998.0,N
1540738316.0,286046998.0,N
1540738335.8,286046995.6,N
1540738355.6,286046994.6,N
1540738375.5,286046991.7,N
1540738395.3,286046994.4,N
1540738415.2,286046992.6,N
1540738435.9,286046993.1,N
1540738455.7,286046994.6,N
1540738475.6,286046993.6,N
1540738495.4,286046993.5,N
1540738515.2,286046993.0,N
1540738535.1,286046993.0,N
1540738536.0,286046993.0,N
1540738555.8,286046995.5,N
1540738575.6,286046995.0,N
1540738595.5,286046993.3,N
1540738615.3,286046994.4,N
1540738635.2,286046992.7,N
1540738655.9,286046999.1,N
1540738675.7,286046999.3,N
1540738695.6,286046993.3,N
1540738715.4,286046994.7,N
1540738735.2,286046990.3,N
1540738755.1,286046986.1,Y
1540738756.0,286046986.1,P
1540738775.8,286046989.0,N
1540738795.7,286046987.7,N
